Location: Makanda
(37.6176°N, 89.2090°W)
Time: 08:43:35
(UTC+00:00)

Cosmos 2369 Rocket - Pass Details

Date: 23 September 2019
Orbit: 830 x 851 km, 71.0° (Epoch: 19 October)

Event Time Altitude Azimuth Distance (km) Brightness Sun altitude
Exits shadow 09:52:15 11° 322° (NW) 2,418 4.4 -22.8°
Drops below altitude 10° 09:52:56 10° 329° (NNW) 2,473 4.5 -22.7°
Sets 09:57:34 0° 3° (N) 3,407 5.6 -21.8°
